This is the latest recevied weather packets stored in our database for station/object N3TTT-13. If no packets are shown the sender has not sent any weather packets the latest 10 day(s).
| Time | Temp. | Humidity | Pressure | Rain* | Wind** | Luminosity | Snow |
|---|---|---|---|---|---|---|---|
| 1777468610 | 13.89° C | 64% | 1016 hPa | 0 mm | - | 98 W/m² | - |
| 1777468307 | 13.89° C | 65% | 1015.8 hPa | 0 mm | - | 150 W/m² | - |
| 1777468003 | 13.89° C | 65% | 1015.8 hPa | 0 mm | - | 121 W/m² | - |
| 1777467699 | 13.89° C | 66% | 1015.5 hPa | 0 mm | - | 90 W/m² | - |
| 1777467394 | 13.89° C | 65% | 1015.4 hPa | 0 mm | - | 106 W/m² | - |
| 1777467090 | 13.89° C | 65% | 1015.6 hPa | 0 mm | - | 136 W/m² | - |
| 1777466787 | 13.89° C | 64% | 1015.7 hPa | 0 mm | - | 135 W/m² | - |
| 1777466485 | 13.33° C | 69% | 1015.8 hPa | 0 mm | - | 177 W/m² | - |
| 1777466181 | 13.33° C | 70% | 1015.6 hPa | 0 mm | - | 121 W/m² | - |
| 1777465877 | 12.78° C | 69% | 1015.8 hPa | 0 mm | - | 83 W/m² | - |
| 1777465574 | 12.78° C | 70% | 1015.9 hPa | 0 mm | - | 81 W/m² | - |
| 1777465269 | 12.78° C | 68% | 1015.8 hPa | 0 mm | - | 90 W/m² | - |
| 1777464964 | 12.78° C | 68% | 1015.8 hPa | 0 mm | - | 92 W/m² | - |
| 1777464659 | 12.78° C | 70% | 1016 hPa | 0 mm | - | 103 W/m² | - |
| 1777464355 | 12.78° C | 69% | 1015.7 hPa | 0 mm | - | 104 W/m² | - |
| 1777464050 | 12.78° C | 69% | 1015.7 hPa | 0 mm | - | 94 W/m² | - |
| 1777463745 | 12.22° C | 70% | 1015.8 hPa | 0 mm | - | 87 W/m² | - |
| 1777463440 | 12.22° C | 70% | 1015.6 hPa | 0 mm | - | 84 W/m² | - |
| 1777463136 | 12.22° C | 69% | 1015.9 hPa | 0 mm | - | 82 W/m² | - |
| 1777462833 | 11.67° C | 74% | 1015.9 hPa | 0 mm | - | 80 W/m² | - |
| 1777462528 | 11.67° C | 75% | 1016.1 hPa | 0 mm | - | 75 W/m² | - |
| 1777462225 | 11.67° C | 76% | 1016 hPa | 0 mm | - | 67 W/m² | - |
| 1777461921 | 11.67° C | 75% | 1015.7 hPa | 0 mm | - | 58 W/m² | - |
| 1777461618 | 11.67° C | 71% | 1015.9 hPa | 0 mm | - | 51 W/m² | - |
| 1777461313 | 11.67° C | 71% | 1016 hPa | 0 mm | - | 48 W/m² | - |
* Rain latest hour (hover to see other rain measurements)
** Current wind speed in m/s (hover to see current wind gust speed)